UK-DMC 2

Last updated on Thu Feb 05 2026 00:02:37 GMT+0000 (Coordinated Universal Time)

1 35683U 09041C 26035.54934803 .00001831 00000+0 27460-3 0 9995 2 35683 97.8603 173.9521 0001369 74.9241 285.2120 14.75772212887005
UTC large
Height (km)
Speed (km/s)
/
Latitude / Longitude
Inclination (degrees)
Orbital Period (minutes)
Azimuth
Elevation
Range (km)
Doppler Factor

Next 0 passes for location: London (51.5072 / 0.1276)

Sorry there are no passes over London.